Greenville, SC

8:14 AM EST on February 21, 2017 (GMT -0500)
Greenville Downtown

Weather History for KGMU - February, 2014

Change the Weather History Date:

Wednesday, February 12, 2014

  Actual Average Record
Temperature  
Mean Temperature 27 °F -  
Max Temperature 30 °F 52 °F 80 °F (2017)
Min Temperature 24 °F 35 °F 19 °F (2012)
Degree Days  
Heating Degree Days 38    
Moisture  
Dew Point 22 °F    
Average Humidity 83    
Maximum Humidity 93    
Minimum Humidity 69    
Precipitation  
Precipitation 0.49 in - - ()
Sea Level Pressure  
Sea Level Pressure 30.11 in    
Wind  
Wind Speed 13 mph (NE)    
Max Wind Speed 21 mph    
Max Gust Speed 31 mph    
Visibility 3 miles    
Events Fog , Rain , Snow    
Averages and records for this station are not official NWS values.
T = Trace of Precipitation, MM = Missing Value Source: NWS Daily Summary

Daily Weather History Graph

Daily Weather History Graph

Search for Another Location

Airport or City:

Trip Planner

Search our weather history database for the weather conditions in past years. The results will help you decide how hot, cold, wet, or windy it might be!

Date:

Astronomy

Feb. 12, 2014 Rise Set
Actual Time 7:18 AM EST 6:09 PM EST
Civil Twilight 6:52 AM EST 6:35 PM EST
Nautical Twilight 6:22 AM EST 7:05 PM EST
Astronomical Twilight 5:53 AM EST 7:34 PM EST
Moon 4:23 PM EST (2/12) 5:32 AM EST (2/12)
Length of Visible Light 11h 43m
Length of Day
10h 51m
Waxing Gibbous, 95% of the Moon is Illuminated
Feb 12
Waxing Gibbous
Feb 14
Full
Feb 22
Last Quarter
Mar 1
New
Mar 8
First Quarter

Hourly Weather History & Observations

Time (EST) Temp. Windchill Dew Point Humidity Pressure Visibility Wind Dir Wind Speed Gust Speed Precip Events Conditions
12:53 AM 30.9 °F 22.8 °F 28.0 °F 89% 30.34 in 6.0 mi ENE 9.2 mph - N/A   Overcast
1:08 AM 30.2 °F 21.9 °F 28.4 °F 93% 30.31 in 6.0 mi ENE 9.2 mph - N/A   Overcast
1:19 AM 30.2 °F 21.9 °F 28.4 °F 93% 30.31 in 5.0 mi ENE 9.2 mph - N/A   Overcast
1:53 AM 30.9 °F 22.2 °F 28.0 °F 89% 30.34 in 5.0 mi ENE 10.4 mph - N/A   Mostly Cloudy
2:03 AM 30.2 °F 21.3 °F 28.4 °F 93% 30.30 in 5.0 mi ENE 10.4 mph - N/A   Mostly Cloudy
2:53 AM 30.9 °F 22.8 °F 28.0 °F 89% 30.34 in 5.0 mi ENE 9.2 mph - N/A   Overcast
3:23 AM 30.2 °F 20.8 °F 26.6 °F 86% 30.29 in 6.0 mi ENE 11.5 mph - N/A   Overcast
3:53 AM 30.0 °F 22.4 °F 26.1 °F 85% 30.32 in 6.0 mi ENE 8.1 mph - N/A   Overcast
4:53 AM 30.0 °F 20.0 °F 24.1 °F 79% 30.31 in 7.0 mi NE 12.7 mph 25.3 mph N/A   Overcast
5:53 AM 28.9 °F 18.6 °F 21.0 °F 72% 30.31 in 10.0 mi NE 12.7 mph 19.6 mph N/A   Overcast
6:53 AM 28.0 °F 18.1 °F 19.0 °F 69% 30.34 in 10.0 mi ENE 11.5 mph - N/A   Overcast
7:51 AM 26.6 °F 16.2 °F 17.6 °F 69% 30.32 in 2.5 mi ENE 11.5 mph - 0.00 in Snow Light Snow
7:53 AM 27.0 °F 16.1 °F 19.0 °F 72% 30.35 in 2.0 mi ENE 12.7 mph - 0.00 in Snow Light Snow
8:01 AM 26.6 °F 14.7 °F 19.4 °F 74% 30.32 in 1.0 mi ENE 15.0 mph 26.5 mph 0.00 in Snow Light Snow
8:08 AM 26.6 °F 15.2 °F 19.4 °F 74% 30.32 in 0.8 mi ENE 13.8 mph - 0.00 in Snow Light Snow
8:19 AM 26.6 °F 15.2 °F 21.2 °F 80% 30.33 in 0.8 mi NE 13.8 mph 20.7 mph 0.01 in Snow Light Snow
8:53 AM 25.0 °F 15.5 °F 21.0 °F 85% 30.36 in 0.5 mi NE 9.2 mph - 0.02 in Fog , Snow Snow
9:03 AM 24.8 °F 14.0 °F 21.2 °F 86% 30.32 in 0.8 mi NE 11.5 mph 19.6 mph 0.00 in Snow Light Snow
9:53 AM 25.0 °F 14.2 °F 21.0 °F 85% 30.32 in 0.8 mi NE 11.5 mph 20.7 mph 0.01 in Snow Light Snow
10:36 AM 24.8 °F 11.5 °F 21.2 °F 86% 30.24 in 1.0 mi NE 17.3 mph 27.6 mph 0.01 in Snow Light Snow
10:39 AM 24.8 °F 11.9 °F 21.2 °F 86% 30.24 in 1.0 mi NE 16.1 mph 27.6 mph 0.01 in Snow Light Snow
10:46 AM 26.6 °F 13.4 °F 21.2 °F 80% 30.23 in 1.5 mi NE 18.4 mph 23.0 mph 0.01 in Snow Light Snow
10:53 AM 26.1 °F 14.5 °F 21.0 °F 81% 30.27 in 1.8 mi NE 13.8 mph 23.0 mph 0.01 in Snow Light Snow
11:05 AM 24.8 °F 11.9 °F 19.4 °F 80% 30.24 in 2.0 mi NE 16.1 mph 26.5 mph 0.00 in Snow Light Snow
11:24 AM 24.8 °F 12.9 °F 19.4 °F 80% 30.24 in 1.2 mi NE 13.8 mph 26.5 mph 0.00 in Snow Light Snow
11:39 AM 24.8 °F 12.4 °F 21.2 °F 86% 30.24 in 1.0 mi ENE 15.0 mph - 0.00 in Snow Light Snow
11:43 AM 24.8 °F 11.9 °F 19.4 °F 80% 30.24 in 0.8 mi ENE 16.1 mph 24.2 mph 0.00 in Snow Light Snow
11:53 AM 25.0 °F 11.7 °F 21.0 °F 85% 30.26 in 0.8 mi NE 17.3 mph 24.2 mph 0.01 in Snow Light Snow
12:25 PM 24.8 °F 11.5 °F 19.4 °F 80% 30.20 in 1.2 mi ENE 17.3 mph 28.8 mph 0.01 in Snow Light Snow
12:53 PM 25.0 °F 10.6 °F 19.9 °F 81% 30.21 in 1.5 mi NE 20.7 mph 27.6 mph 0.02 in Snow Light Snow
1:04 PM 26.6 °F 13.8 °F 21.2 °F 80% 30.17 in 2.0 mi NE 17.3 mph 27.6 mph 0.00 in Snow Light Snow
1:14 PM 26.6 °F 14.7 °F 19.4 °F 74% 30.16 in 4.0 mi NE 15.0 mph 24.2 mph 0.00 in Snow Light Snow
1:31 PM 26.6 °F 14.7 °F 21.2 °F 80% 30.15 in 2.5 mi NE 15.0 mph 21.9 mph 0.01 in Snow Light Snow
1:37 PM 26.6 °F 13.8 °F 19.4 °F 74% 30.16 in 1.5 mi ENE 17.3 mph 25.3 mph 0.01 in Snow Light Snow
1:53 PM 26.1 °F 14.5 °F 21.0 °F 81% 30.17 in 1.2 mi NE 13.8 mph - 0.02 in Snow Light Snow
2:05 PM 26.6 °F 15.7 °F 21.2 °F 80% 30.13 in 1.2 mi NE 12.7 mph 19.6 mph 0.00 in Snow Light Snow
2:14 PM 26.6 °F 15.2 °F 21.2 °F 80% 30.12 in 1.0 mi NE 13.8 mph - 0.00 in Snow Light Snow
2:30 PM 26.6 °F 15.2 °F 21.2 °F 80% 30.09 in 1.0 mi NNE 13.8 mph 23.0 mph 0.01 in Snow Light Snow
2:37 PM 26.6 °F 12.7 °F 21.2 °F 80% 30.07 in 1.5 mi NE 20.7 mph 28.8 mph 0.01 in Snow Light Snow
2:53 PM 26.1 °F 12.7 °F 19.9 °F 78% 30.09 in 3.0 mi NNE 18.4 mph 28.8 mph 0.02 in   Overcast
3:16 PM 24.8 °F 11.5 °F 19.4 °F 80% 30.03 in 2.5 mi NE 17.3 mph 28.8 mph 0.01 in   Overcast
3:50 PM 24.8 °F 10.7 °F 19.4 °F 80% 30.01 in 2.5 mi NE 19.6 mph 29.9 mph 0.04 in Rain Light Freezing Rain
3:53 PM 25.0 °F 10.9 °F 19.9 °F 81% 30.04 in 2.0 mi NE 19.6 mph 29.9 mph 0.04 in Rain Light Freezing Rain
4:10 PM 24.8 °F 11.9 °F 21.2 °F 86% 29.99 in 1.5 mi NE 16.1 mph 27.6 mph 0.02 in   Overcast
4:26 PM 26.6 °F 13.4 °F 19.4 °F 74% 29.98 in 2.5 mi NE 18.4 mph 29.9 mph 0.03 in   Overcast
4:45 PM 24.8 °F 11.5 °F 21.2 °F 86% 29.97 in 1.5 mi NE 17.3 mph 25.3 mph 0.05 in   Overcast
4:53 PM 25.0 °F 12.2 °F 21.0 °F 85% 30.00 in 1.0 mi NE 16.1 mph 25.3 mph 0.06 in   Overcast
5:53 PM 25.0 °F 10.6 °F 21.0 °F 85% 29.95 in 1.5 mi NNE 20.7 mph 31.1 mph 0.04 in Snow Light Snow
6:06 PM 24.8 °F 10.7 °F 21.2 °F 86% 29.92 in 3.0 mi NE 19.6 mph 27.6 mph 0.00 in Snow Light Snow
6:26 PM 24.8 °F 11.9 °F 21.2 °F 86% 29.92 in 4.0 mi NE 16.1 mph 28.8 mph 0.00 in Rain Light Freezing Rain
6:38 PM 24.8 °F 11.1 °F 21.2 °F 86% 29.92 in 2.5 mi NE 18.4 mph 29.9 mph 0.00 in Rain Light Freezing Rain
6:53 PM 25.0 °F 10.6 °F 21.9 °F 88% 29.93 in 2.5 mi NE 20.7 mph 29.9 mph 0.01 in Rain Light Freezing Rain
7:07 PM 24.8 °F 10.7 °F 21.2 °F 86% 29.89 in 2.0 mi NE 19.6 mph - 0.00 in Rain Light Freezing Rain
7:15 PM 24.8 °F 12.4 °F 21.2 °F 86% 29.90 in 2.0 mi NE 15.0 mph 28.8 mph 0.01 in Rain Light Freezing Rain
7:21 PM 24.8 °F 12.9 °F 21.2 °F 86% 29.90 in 2.0 mi NE 13.8 mph - 0.01 in   Overcast
7:53 PM 26.1 °F 14.5 °F 21.9 °F 84% 29.95 in 2.0 mi NE 13.8 mph 23.0 mph 0.04 in   Overcast
8:02 PM 26.6 °F 16.2 °F 21.2 °F 80% 29.91 in 1.8 mi NE 11.5 mph 20.7 mph 0.03 in   Overcast
8:18 PM 26.6 °F 14.7 °F 23.0 °F 86% 29.90 in 1.5 mi NE 15.0 mph 20.7 mph 0.09 in   Overcast
8:48 PM 26.6 °F 15.2 °F 23.0 °F 86% 29.89 in 1.5 mi NE 13.8 mph 21.9 mph 0.15 in   Overcast
8:53 PM 26.1 °F 13.6 °F 23.0 °F 88% 29.92 in 1.8 mi NE 16.1 mph 23.0 mph 0.16 in   Overcast
9:14 PM 26.6 °F 16.2 °F 23.0 °F 86% 29.88 in 1.8 mi NE 11.5 mph 21.9 mph 0.01 in Snow Light Snow
9:18 PM 26.6 °F 16.8 °F 23.0 °F 86% 29.88 in 1.8 mi NE 10.4 mph - 0.02 in Snow Light Snow
9:51 PM 26.6 °F 15.2 °F 24.8 °F 93% 29.88 in 2.5 mi NNE 13.8 mph 23.0 mph 0.03 in   Overcast
9:53 PM 27.0 °F 16.1 °F 24.1 °F 89% 29.91 in 2.5 mi NNE 12.7 mph 23.0 mph 0.03 in   Overcast
10:02 PM 26.6 °F 14.7 °F 24.8 °F 93% 29.87 in 3.0 mi NE 15.0 mph - 0.00 in   Overcast
10:27 PM 28.4 °F 18.0 °F 24.8 °F 86% 29.84 in 4.0 mi NE 12.7 mph - 0.00 in   Overcast
10:53 PM 28.0 °F 15.3 °F 25.0 °F 88% 29.86 in 10.0 mi NE 18.4 mph 24.2 mph 0.00 in   Overcast
11:46 PM 28.4 °F 16.6 °F 26.6 °F 93% 29.80 in 4.0 mi NE 16.1 mph 20.7 mph 0.00 in Rain Light Freezing Rain
11:53 PM 30.0 °F 19.1 °F 26.1 °F 85% 29.83 in 4.0 mi NNE 15.0 mph 21.9 mph 0.00 in Rain Light Freezing Rain